GW3210 Weather Reports


time (UTC)temp
F
wind
direction
speed
knots
gust
knots
rain 1hr
in
rain 24hr
in
rain mn
in
humidity
%
barometer
mb
20260508140317 48 315 1.7 2.6 0.00 0.00 0.00 65 1022.1
20260508135316 48 293 2.6 6.1 0.00 0.00 0.00 64 1022.0
20260508134316 48 293 1.7 2.6 0.00 0.00 0.00 65 1021.7
20260508133316 48 270 1.7 2.6 0.00 0.00 0.00 65 1021.4
20260508132316 48 293 0.9 1.7 0.00 0.00 0.00 64 1021.2
20260508131316 49 270 0.9 2.6 0.00 0.00 0.00 64 1021.0
20260508131116 49 270 0.9 1.7 0.00 0.00 0.00 64 1021.0
20260508130117 49 0.0 0.0 0.00 0.00 0.00 64 1020.9
20260508125137 49 270 0.9 1.7 0.00 0.00 0.00 63 1020.9
20260508124117 49 0.0 0.9 0.00 0.00 0.00 63 1020.7
20260508123117 50 270 0.9 1.7 0.00 0.00 0.00 63 1020.7
20260508122116 50 0.0 0.9 0.00 0.00 0.00 63 1020.6
20260508121116 50 0.0 0.0 0.00 0.00 0.00 63 1020.6
20260508120117 50 0.0 0.9 0.00 0.00 0.00 63 1020.5
20260508115157 50 0.0 0.9 0.00 0.00 0.00 63 1020.3
20260508114116 50 270 0.9 0.9 0.00 0.00 0.00 63 1020.2
20260508113116 50 270 0.9 0.9 0.00 0.00 0.00 62 1020.0
20260508112137 50 0.0 0.0 0.00 0.00 0.00 62 1019.9
20260508111137 50 270 0.9 0.9 0.00 0.00 0.00 62 1019.9
20260508110136 50 270 0.9 1.7 0.00 0.00 0.00 62 1019.8
20260508105117 50 0.0 0.9 0.00 0.00 0.00 62 1019.7
20260508104116 50 0.0 0.9 0.00 0.00 0.00 61 1019.5
20260508103137 50 270 0.9 0.9 0.00 0.00 0.00 61 1019.5
20260508102116 50 0.0 0.9 0.00 0.00 0.00 60 1019.4
20260508101116 51 270 0.9 0.9 0.00 0.00 0.00 60 1019.4
20260508100116 51 270 0.9 1.7 0.00 0.00 0.00 60 1019.3
20260508095116 51 270 0.9 1.7 0.00 0.00 0.00 59 1019.3
20260508094116 51 270 0.9 1.7 0.00 0.00 0.00 60 1019.2
20260508093137 51 0.0 0.9 0.00 0.00 0.00 59 1019.1
20260508092116 51 0.0 0.0 0.00 0.00 0.00 58 1019.0
20260508091116 52 270 0.9 0.9 0.00 0.00 0.00 58 1018.8
20260508090116 52 270 0.9 0.9 0.00 0.00 0.00 58 1018.8
20260508085136 52 270 0.9 0.9 0.00 0.00 0.00 57 1018.7
20260508084137 52 270 0.9 0.9 0.00 0.00 0.00 56 1018.6
20260508083116 53 0.0 0.9 0.00 0.00 0.00 55 1018.5
20260508082116 53 270 0.9 0.9 0.00 0.00 0.00 54 1018.5
20260508081136 53 270 0.9 1.7 0.00 0.00 0.00 54 1018.5
20260508080116 54 270 0.9 1.7 0.00 0.00 0.00 54 1018.5
20260508075116 54 270 1.7 2.6 0.00 0.00 0.00 53 1018.6
20260508074116 54 270 0.9 1.7 0.00 0.00 0.00 53 1018.4
20260508073116 54 270 0.9 1.7 0.00 0.00 0.00 53 1018.5
20260508072115 54 270 2.6 3.5 0.00 0.00 0.00 53 1018.4
20260508071136 54 270 0.9 1.7 0.00 0.00 0.00 52 1018.4
20260508070116 54 270 1.7 1.7 0.00 0.00 0.00 52 1018.5
20260508065116 55 0.0 0.0 0.00 0.00 0.00 49 1018.4
20260508064137 55 0.0 0.0 0.00 0.00 0.00 50 1018.3
20260508063116 56 293 0.9 0.9 0.00 0.00 0.00 49 1018.3
20260508062116 57 0.0 0.9 0.00 0.00 0.00 47 1018.4
20260508061116 57 0.0 0.0 0.00 0.00 0.00 46 1018.3
20260508060137 58 270 1.7 2.6 0.00 0.00 0.00 45 1018.4
20260508055117 58 315 1.7 1.7 0.00 0.00 0.00 44 1018.3
20260508054137 59 293 1.7 2.6 0.00 0.00 0.00 43 1018.3
20260508053116 59 270 1.7 2.6 0.00 0.00 0.00 41 1018.4
20260508052116 60 293 1.7 1.7 0.00 0.00 0.00 40 1018.4
20260508051117 60 315 0.9 1.7 0.00 0.00 0.00 39 1018.3
20260508050116 60 315 0.9 1.7 0.00 0.00 0.00 39 1018.4
20260508045117 60 315 0.9 1.7 0.00 0.00 0.00 38 1018.4
20260508044117 60 315 1.7 2.6 0.00 0.00 0.00 38 1018.3
20260508043116 61 338 0.9 2.6 0.00 0.00 0.00 38 1018.3
20260508042116 61 338 1.7 2.6 0.00 0.00 0.00 37 1018.3
20260508041117 61 338 1.7 2.6 0.00 0.00 0.00 36 1018.3
20260508040116 62 0.0 0.0 0.00 0.00 0.00 37 1018.1
20260508035137 62 315 0.9 0.9 0.00 0.00 0.00 36 1018.1
20260508034116 62 315 0.9 2.6 0.00 0.00 0.00 35 1018.0
20260508033136 63 315 0.9 1.7 0.00 0.00 0.00 35 1017.9
20260508032116 63 315 0.9 1.7 0.00 0.00 0.00 34 1017.8
20260508031116 64 338 1.7 2.6 0.00 0.00 0.00 35 1017.7
20260508030116 64 0 1.7 2.6 0.00 0.00 0.00 35 1017.7
20260508025116 64 0 2.6 3.5 0.00 0.00 0.00 35 1017.7
20260508024137 65 338 2.6 3.5 0.00 0.00 0.00 34 1017.9
20260508023116 65 0 0.9 0.9 0.00 0.00 0.00 34 1017.9
20260508022116 66 0.0 0.9 0.00 0.00 0.00 33 1017.8
20260508021116 67 338 0.9 1.7 0.00 0.00 0.00 32 1017.9
20260508020136 67 293 1.7 2.6 0.00 0.00 0.00 30 1018.1
20260508015116 68 23 0.9 1.7 0.00 0.00 0.00 26 1018.1
20260508014115 68 338 1.7 2.6 0.00 0.00 0.00 25 1018.1
20260508013137 68 0 2.6 3.5 0.00 0.00 0.00 24 1018.2
20260508012136 69 315 1.7 3.5 0.00 0.00 0.00 23 1018.2
20260508011115 71 0.0 1.7 0.00 0.00 0.00 21 1018.3
20260508010116 71 338 1.7 2.6 0.00 0.00 0.00 20 1018.4
20260508005156 71 0 3.5 4.3 0.00 0.00 0.00 20 1018.5
20260508004116 72 0 1.7 3.5 0.00 0.00 0.00 21 1018.6
20260508003116 72 293 2.6 3.5 0.00 0.00 0.00 22 1018.6
20260508002116 71 338 5.2 7.8 0.00 0.00 0.00 21 1018.7
20260508001116 71 0 3.5 7.0 0.00 0.00 0.00 21 1018.7
20260508000116 72 45 1.7 2.6 0.00 0.00 0.00 23 1018.8
20260507235115 71 23 0.9 1.7 0.00 0.00 0.00 24 1018.9
20260507234115 72 338 6.1 8.7 0.00 0.00 0.00 25 1019.2
20260507233115 72 338 1.7 4.3 0.00 0.00 0.00 24 1019.3
20260507232115 71 315 4.3 8.7 0.00 0.00 0.00 24 1019.3
20260507231115 72 338 3.5 5.2 0.00 0.00 0.00 25 1019.6
20260507230136 71 338 3.5 7.0 0.00 0.00 0.00 25 1019.7
20260507225116 71 248 3.5 7.8 0.00 0.00 0.00 23 1019.8
20260507224135 70 23 2.6 4.3 0.00 0.00 0.00 24 1019.8
20260507223118 70 293 4.3 7.8 0.00 0.00 0.00 24 1020.0
20260507222117 70 0 3.5 7.0 0.00 0.00 0.00 28 1020.0
20260507221118 70 293 3.5 6.1 0.00 0.00 0.00 25 1020.2
20260507220117 69 248 1.7 4.3 0.00 0.00 0.00 26 1020.1
20260507215117 69 270 5.2 8.7 0.00 0.00 0.00 28 1020.3
20260507214117 68 0 2.6 5.2 0.00 0.00 0.00 28 1020.4
20260507213115 67 338 2.6 4.3 0.00 0.00 0.00 33 1020.6
20260507212117 68 293 3.5 6.1 0.00 0.00 0.00 30 1020.6
20260507211117 67 338 0.9 2.6 0.00 0.00 0.00 33 1020.7
20260507210138 67 293 2.6 6.1 0.00 0.00 0.00 33 1020.8
20260507205117 67 270 2.6 3.5 0.00 0.00 0.00 34 1020.9
20260507204158 66 270 2.6 5.2 0.00 0.00 0.00 34 1021.0
20260507203138 67 113 0.9 1.7 0.00 0.00 0.00 34 1021.1
20260507202117 66 293 2.6 4.3 0.00 0.00 0.00 35 1021.2
20260507201117 67 315 3.5 7.0 0.00 0.00 0.00 34 1021.4
20260507200239 66 23 0.9 1.7 0.00 0.00 0.00 35 1021.4
20260507195138 66 293 0.9 2.6 0.00 0.00 0.00 34 1021.5
20260507194117 65 23 2.6 4.3 0.00 0.00 0.00 37 1021.7
20260507193118 65 338 3.5 7.0 0.00 0.00 0.00 39 1021.7
20260507192117 64 315 2.6 4.3 0.00 0.00 0.00 40 1021.7
20260507191117 65 180 1.7 3.5 0.00 0.00 0.00 37 1021.8
20260507190117 63 248 1.7 2.6 0.00 0.00 0.00 41 1021.9
20260507185118 63 293 2.6 6.1 0.00 0.00 0.00 42 1022.0
20260507184117 63 225 1.7 3.5 0.00 0.00 0.00 39 1022.0
20260507183117 63 248 1.7 3.5 0.00 0.00 0.00 41 1022.1
20260507182117 62 315 1.7 4.3 0.00 0.00 0.00 42 1022.2
20260507181117 61 293 3.5 6.1 0.00 0.00 0.00 44 1022.3
20260507180117 61 315 3.5 7.0 0.00 0.00 0.00 45 1022.3
20260507175117 60 45 1.7 2.6 0.00 0.00 0.00 46 1022.4
20260507174118 59 270 1.7 4.3 0.00 0.00 0.00 47 1022.3
20260507173117 60 315 3.5 7.0 0.00 0.00 0.00 48 1022.4
20260507172117 59 270 3.5 5.2 0.00 0.00 0.00 52 1022.3
20260507171117 57 293 3.5 6.1 0.00 0.00 0.00 52 1022.3
20260507170117 56 293 4.3 7.0 0.00 0.00 0.00 53 1022.3
20260507165117 55 315 3.5 6.1 0.00 0.00 0.00 55 1022.3
20260507164117 53 270 2.6 3.5 0.00 0.00 0.00 58 1022.3
20260507163117 53 293 3.5 5.2 0.00 0.00 0.00 56 1022.3
20260507162137 52 338 2.6 3.5 0.00 0.00 0.00 58 1022.2
20260507161116 52 315 2.6 3.5 0.00 0.00 0.00 59 1022.3
20260507160137 52 315 3.5 5.2 0.00 0.00 0.00 59 1022.3
20260507155117 51 338 1.7 2.6 0.00 0.00 0.00 60 1022.3
20260507154117 51 293 2.6 3.5 0.00 0.00 0.00 61 1022.4
20260507153117 50 293 2.6 3.5 0.00 0.00 0.00 61 1022.4
20260507152116 50 293 3.5 6.1 0.00 0.00 0.00 61 1022.4
20260507151137 50 338 2.6 4.3 0.00 0.00 0.00 62 1022.4
20260507150116 49 338 4.3 7.0 0.00 0.00 0.00 61 1022.4
20260507144117 49 293 3.5 7.0 0.00 0.00 0.00 61 1022.3
20260507143116 49 293 3.5 6.1 0.00 0.00 0.00 61 1022.3
20260507142117 49 338 3.5 4.3 0.00 0.00 0.00 61 1022.3
20260507141116 49 293 5.2 7.8 0.00 0.00 0.00 61 1022.3